TimeCDT,TemperatureF,Dew PointF,Humidity,Sea Level PressureIn,VisibilityMPH,Wind Direction,Wind SpeedMPH,Gust SpeedMPH,PrecipitationIn,Events,Conditions,WindDirDegrees,DateUTC
12:13 AM,60.8,39.2,45,29.51,10.0,WNW,8.1,16.1,N/A,,Clear,290,2013-05-15 05:13:00
12:33 AM,60.8,39.2,45,29.52,10.0,WNW,5.8,20.7,N/A,,Clear,300,2013-05-15 05:33:00
12:53 AM,60.8,41.0,48,29.53,10.0,NW,5.8,17.3,N/A,,Clear,310,2013-05-15 05:53:00
1:13 AM,59.0,41.0,51,29.56,10.0,NW,9.2,19.6,N/A,,Clear,310,2013-05-15 06:13:00
1:33 AM,57.2,41.0,55,29.57,10.0,NW,12.7,19.6,N/A,,Clear,310,2013-05-15 06:33:00
1:53 AM,57.2,41.0,55,29.59,10.0,NW,10.4,17.3,N/A,,Clear,310,2013-05-15 06:53:00
2:13 AM,55.4,39.2,54,29.61,10.0,NW,8.1,-,N/A,,Clear,310,2013-05-15 07:13:00
2:33 AM,55.4,39.2,54,29.62,10.0,NW,9.2,-,N/A,,Clear,310,2013-05-15 07:33:00
2:53 AM,53.6,39.2,58,29.63,10.0,NW,9.2,-,N/A,,Clear,310,2013-05-15 07:53:00
3:13 AM,53.6,39.2,58,29.64,10.0,WNW,6.9,-,N/A,,Clear,300,2013-05-15 08:13:00
3:33 AM,53.6,39.2,58,29.65,10.0,WNW,8.1,-,N/A,,Clear,300,2013-05-15 08:33:00
3:53 AM,51.8,39.2,62,29.66,10.0,NW,5.8,16.1,N/A,,Clear,310,2013-05-15 08:53:00
4:13 AM,51.8,37.4,58,29.67,10.0,NW,5.8,-,N/A,,Clear,310,2013-05-15 09:13:00
4:33 AM,51.8,37.4,58,29.68,10.0,WNW,6.9,-,N/A,,Clear,300,2013-05-15 09:33:00
4:53 AM,51.8,39.2,62,29.68,10.0,WNW,6.9,-,N/A,,Clear,300,2013-05-15 09:53:00
5:13 AM,50.0,37.4,62,29.69,10.0,WNW,6.9,-,N/A,,Clear,300,2013-05-15 10:13:00
5:33 AM,50.0,37.4,62,29.69,10.0,NW,4.6,-,N/A,,Clear,310,2013-05-15 10:33:00
5:53 AM,50.0,37.4,62,29.70,10.0,NW,4.6,-,N/A,,Clear,310,2013-05-15 10:53:00
6:13 AM,51.8,37.4,58,29.71,10.0,NW,4.6,-,N/A,,Clear,320,2013-05-15 11:13:00
6:33 AM,51.8,39.2,62,29.71,10.0,WNW,5.8,-,N/A,,Clear,300,2013-05-15 11:33:00
6:53 AM,53.6,37.4,54,29.72,10.0,WNW,6.9,-,N/A,,Clear,300,2013-05-15 11:53:00
7:13 AM,55.4,37.4,51,29.72,10.0,NW,6.9,-,N/A,,Clear,320,2013-05-15 12:13:00
7:33 AM,57.2,35.6,44,29.72,10.0,NNW,8.1,-,N/A,,Clear,330,2013-05-15 12:33:00
7:53 AM,60.8,32.0,34,29.73,10.0,NW,5.8,-,N/A,,Clear,320,2013-05-15 12:53:00
8:13 AM,62.6,32.0,32,29.74,10.0,NW,9.2,-,N/A,,Clear,310,2013-05-15 13:13:00
8:33 AM,64.4,30.2,28,29.75,10.0,NW,6.9,-,N/A,,Clear,310,2013-05-15 13:33:00
8:53 AM,64.4,30.2,28,29.76,10.0,WNW,10.4,20.7,N/A,,Clear,290,2013-05-15 13:53:00
9:13 AM,64.4,30.2,28,29.77,10.0,NW,11.5,18.4,N/A,,Clear,310,2013-05-15 14:13:00
9:33 AM,66.2,30.2,26,29.77,10.0,NW,6.9,18.4,N/A,,Clear,310,2013-05-15 14:33:00
9:53 AM,66.2,30.2,26,29.76,10.0,NW,12.7,24.2,N/A,,Clear,310,2013-05-15 14:53:00
10:13 AM,68.0,28.4,23,29.76,10.0,NW,12.7,23.0,N/A,,Clear,310,2013-05-15 15:13:00
10:33 AM,69.8,28.4,21,29.76,10.0,WNW,9.2,24.2,N/A,,Clear,300,2013-05-15 15:33:00
10:53 AM,69.8,28.4,21,29.77,10.0,West,10.4,24.2,N/A,,Clear,270,2013-05-15 15:53:00
11:13 AM,71.6,28.4,20,29.77,10.0,WNW,10.4,24.2,N/A,,Clear,300,2013-05-15 16:13:00
11:33 AM,71.6,28.4,20,29.77,10.0,West,11.5,23.0,N/A,,Clear,270,2013-05-15 16:33:00
11:53 AM,71.6,26.6,19,29.77,10.0,WNW,9.2,24.2,N/A,,Clear,290,2013-05-15 16:53:00
12:13 PM,73.4,28.4,19,29.76,10.0,NW,11.5,19.6,N/A,,Scattered Clouds,310,2013-05-15 17:13:00
12:53 PM,73.4,26.6,18,29.76,10.0,WNW,10.4,28.8,N/A,,Clear,300,2013-05-15 17:53:00
1:13 PM,73.4,24.8,16,29.75,10.0,WNW,9.2,20.7,N/A,,Clear,300,2013-05-15 18:13:00
1:33 PM,75.2,24.8,15,29.75,10.0,NW,9.2,18.4,N/A,,Scattered Clouds,320,2013-05-15 18:33:00
1:53 PM,75.2,23.0,14,29.74,10.0,NW,9.2,18.4,N/A,,Scattered Clouds,310,2013-05-15 18:53:00
2:13 PM,75.2,21.2,13,29.74,10.0,West,5.8,18.4,N/A,,Clear,280,2013-05-15 19:13:00
2:33 PM,75.2,21.2,13,29.74,10.0,West,10.4,17.3,N/A,,Clear,280,2013-05-15 19:33:00
2:53 PM,77.0,19.4,12,29.73,10.0,WNW,12.7,24.2,N/A,,Scattered Clouds,300,2013-05-15 19:53:00
3:13 PM,75.2,19.4,12,29.73,10.0,WNW,8.1,18.4,N/A,,Scattered Clouds,300,2013-05-15 20:13:00
3:33 PM,73.4,21.2,14,29.73,10.0,NNW,10.4,17.3,N/A,,Scattered Clouds,330,2013-05-15 20:33:00
3:53 PM,75.2,19.4,12,29.73,10.0,NNW,11.5,20.7,N/A,,Scattered Clouds,330,2013-05-15 20:53:00
4:33 PM,73.4,21.2,14,29.74,10.0,WNW,8.1,18.4,N/A,,Clear,290,2013-05-15 21:33:00
4:53 PM,73.4,21.2,14,29.74,10.0,NW,11.5,21.9,N/A,,Clear,310,2013-05-15 21:53:00
5:13 PM,71.6,21.2,15,29.75,10.0,NNW,6.9,19.6,N/A,,Clear,340,2013-05-15 22:13:00
5:33 PM,71.6,26.6,19,29.76,10.0,NNW,11.5,19.6,N/A,,Scattered Clouds,340,2013-05-15 22:33:00
5:53 PM,68.0,30.2,24,29.77,10.0,NNW,9.2,-,N/A,,Scattered Clouds,340,2013-05-15 22:53:00
6:13 PM,68.0,28.4,23,29.76,10.0,NNW,5.8,16.1,N/A,,Scattered Clouds,330,2013-05-15 23:13:00
6:33 PM,69.8,28.4,21,29.76,10.0,NNW,4.6,-,N/A,,Clear,330,2013-05-15 23:33:00
6:53 PM,68.0,28.4,23,29.77,10.0,NW,9.2,-,N/A,,Clear,320,2013-05-15 23:53:00
7:13 PM,68.0,28.4,23,29.77,10.0,NW,4.6,-,N/A,,Clear,320,2013-05-16 00:13:00
7:33 PM,66.2,28.4,24,29.77,10.0,WNW,3.5,-,N/A,,Clear,290,2013-05-16 00:33:00
7:53 PM,64.4,28.4,26,29.77,10.0,Calm,Calm,-,N/A,,Clear,0,2013-05-16 00:53:00
8:13 PM,62.6,28.4,27,29.77,10.0,Calm,Calm,-,N/A,,Clear,0,2013-05-16 01:13:00
8:33 PM,60.8,30.2,31,29.77,10.0,Calm,Calm,-,N/A,,Clear,0,2013-05-16 01:33:00
8:53 PM,57.2,30.2,36,29.78,10.0,Calm,Calm,-,N/A,,Clear,0,2013-05-16 01:53:00
9:13 PM,55.4,30.2,38,29.79,10.0,Calm,Calm,-,N/A,,Clear,0,2013-05-16 02:13:00
9:34 PM,53.6,30.2,41,29.79,10.0,Calm,Calm,-,N/A,,Clear,0,2013-05-16 02:34:00
9:53 PM,51.8,32.0,47,29.79,10.0,Calm,Calm,-,N/A,,Clear,0,2013-05-16 02:53:00
10:13 PM,48.2,33.8,58,29.79,10.0,Calm,Calm,-,N/A,,Clear,0,2013-05-16 03:13:00
10:33 PM,46.4,33.8,62,29.79,10.0,Calm,Calm,-,N/A,,Clear,0,2013-05-16 03:33:00
10:53 PM,46.4,33.8,62,29.80,10.0,Calm,Calm,-,N/A,,Clear,0,2013-05-16 03:53:00
11:13 PM,44.6,33.8,66,29.80,10.0,Calm,Calm,-,N/A,,Clear,0,2013-05-16 04:13:00
11:33 PM,44.6,32.0,61,29.80,10.0,Calm,Calm,-,N/A,,Clear,0,2013-05-16 04:33:00
11:53 PM,44.6,32.0,61,29.81,10.0,Calm,Calm,-,N/A,,Clear,0,2013-05-16 04:53:00